Weather reports worldwide

Advertisment
Writtle, United Kingdom (99127): temperature & dewpoint: 16.02.2019 01:00:00 - 22.02.2019 01:00:00 (GMT)Writtle, United Kingdom (99127): temperature -20cm: 16.02.2019 01:00:00 - 22.02.2019 01:00:00 (GMT)Writtle, United Kingdom (99127): precipitation: 16.02.2019 01:00:00 - 22.02.2019 01:00:00 (GMT)
Date & Time tt [°C] td [°C] tt -20cm [°C] rr [mm]
22.02.2019 01:00:00 - - - -
22.02.2019 00:00:00 3,7 3,2 - 0,0
21.02.2019 23:00:00 5,2 4,6 - 0,0
21.02.2019 22:00:00 7,0 6,1 - 0,0
21.02.2019 21:00:00 8,7 7,6 - 0,0
21.02.2019 20:00:00 8,6 7,8 - 0,0
21.02.2019 19:00:00 8,4 5,7 - 0,0
21.02.2019 18:00:00 10,4 7,0 - 0,0
21.02.2019 17:00:00 12,8 7,5 - 0,0
21.02.2019 16:00:00 14,1 7,5 - 0,0
21.02.2019 15:00:00 14,8 8,1 - 0,0
21.02.2019 14:00:00 14,9 7,8 - 0,0
21.02.2019 13:00:00 14,0 8,0 - 0,0
21.02.2019 12:00:00 13,6 9,1 - 0,0
21.02.2019 11:00:00 11,7 8,3 - 0,0
21.02.2019 10:00:00 10,7 8,3 - 0,0
21.02.2019 09:00:00 9,3 7,8 6,7 0,0
21.02.2019 08:00:00 8,3 7,5 - 0,0
21.02.2019 07:00:00 6,5 5,4 - 0,0
21.02.2019 06:00:00 7,5 5,5 - 0,0
21.02.2019 05:00:00 8,3 6,2 - 0,0
21.02.2019 04:00:00 7,3 5,7 - 0,0
21.02.2019 03:00:00 6,5 5,0 - 0,0
21.02.2019 02:00:00 7,1 5,3 - 0,0
21.02.2019 01:00:00 7,5 5,5 - 0,0
21.02.2019 00:00:00 7,3 5,4 - 0,0
20.02.2019 23:00:00 7,7 5,5 - 0,0
20.02.2019 22:00:00 8,0 5,7 - 0,0
20.02.2019 21:00:00 7,7 5,7 - 0,0
20.02.2019 20:00:00 7,8 5,1 - 0,0
20.02.2019 19:00:00 9,0 5,7 - 0,0
20.02.2019 18:00:00 9,8 4,8 - 0,0
20.02.2019 17:00:00 10,3 4,5 - 0,0
20.02.2019 16:00:00 12,1 4,5 - 0,0
20.02.2019 15:00:00 - - - -
20.02.2019 14:00:00 - - - -
20.02.2019 13:00:00 - - - 0,0
20.02.2019 12:00:00 11,8 5,1 - 0,0
20.02.2019 11:00:00 11,5 5,2 - 0,0
20.02.2019 10:00:00 9,8 5,8 - 0,0
20.02.2019 09:00:00 8,5 5,7 6,4 0,0
20.02.2019 08:00:00 7,1 5,5 - 0,0
20.02.2019 07:00:00 6,8 5,4 - 0,0
20.02.2019 06:00:00 6,4 5,2 - 0,0
20.02.2019 05:00:00 6,2 4,7 - 0,0
20.02.2019 04:00:00 6,4 4,6 - 0,0
20.02.2019 03:00:00 6,1 4,3 - 0,0
20.02.2019 02:00:00 6,1 4,4 - 0,0
20.02.2019 01:00:00 6,0 4,8 - 0,0
20.02.2019 00:00:00 5,7 4,6 - 0,0
19.02.2019 23:00:00 6,0 4,5 - 0,0
19.02.2019 22:00:00 6,2 4,2 - 0,0
19.02.2019 21:00:00 7,0 4,6 - 0,0
19.02.2019 20:00:00 7,5 4,3 - 0,0
19.02.2019 19:00:00 8,0 3,3 - 0,0
19.02.2019 18:00:00 8,6 3,1 - 0,0
19.02.2019 17:00:00 9,7 3,0 - 0,0
19.02.2019 16:00:00 9,8 2,3 - 0,0
19.02.2019 15:00:00 11,6 2,1 - 0,0
19.02.2019 14:00:00 11,7 2,9 - 0,0
19.02.2019 13:00:00 11,0 4,8 - 0,0
19.02.2019 12:00:00 10,1 4,0 - 0,0
19.02.2019 11:00:00 9,6 5,2 - 0,0
19.02.2019 10:00:00 8,3 5,1 - 0,0
19.02.2019 09:00:00 6,1 4,3 6,2 0,0
19.02.2019 08:00:00 3,8 3,2 - 0,0
19.02.2019 07:00:00 3,1 2,6 - 0,0
19.02.2019 06:00:00 3,4 2,7 - 0,0
19.02.2019 05:00:00 3,8 2,7 - 0,0
19.02.2019 04:00:00 3,8 2,8 - 0,2
19.02.2019 03:00:00 4,1 2,9 - 0,0
19.02.2019 02:00:00 4,5 3,3 - 0,0
19.02.2019 01:00:00 4,0 2,9 - 0,0
19.02.2019 00:00:00 4,3 3,0 - 0,0
18.02.2019 23:00:00 4,8 3,1 - 0,0
18.02.2019 22:00:00 5,4 3,3 - 0,0
18.02.2019 21:00:00 5,6 3,9 - 0,0
18.02.2019 20:00:00 7,1 5,1 - 0,0
18.02.2019 19:00:00 7,6 5,8 - 0,0
18.02.2019 18:00:00 7,8 5,8 - 0,0
18.02.2019 17:00:00 8,1 6,1 - 0,0
18.02.2019 16:00:00 8,1 6,5 - 0,0
18.02.2019 15:00:00 8,1 6,6 - 0,4
18.02.2019 14:00:00 8,3 6,1 - 0,2
18.02.2019 13:00:00 9,6 7,4 - 0,0
18.02.2019 12:00:00 9,6 7,9 - 0,0
18.02.2019 11:00:00 8,9 7,6 - 0,0
18.02.2019 10:00:00 8,7 7,4 - 0,0
18.02.2019 09:00:00 8,3 7,4 6,2 0,0
18.02.2019 08:00:00 7,6 6,9 - 0,0
18.02.2019 07:00:00 7,0 6,6 - 0,2
18.02.2019 06:00:00 6,4 5,9 - 0,0
18.02.2019 05:00:00 6,8 6,2 - 0,0
18.02.2019 04:00:00 7,6 6,9 - 0,0
18.02.2019 03:00:00 8,0 6,8 - 0,0
18.02.2019 02:00:00 9,0 7,1 - 0,0
18.02.2019 01:00:00 10,1 7,7 - 0,0
18.02.2019 00:00:00 9,8 8,5 - 0,0
17.02.2019 23:00:00 9,8 8,5 - 0,0
17.02.2019 22:00:00 9,7 8,0 - 0,0
17.02.2019 21:00:00 9,5 7,7 - 0,0
17.02.2019 20:00:00 9,1 6,8 - 0,0
17.02.2019 19:00:00 10,0 7,0 - 0,0
17.02.2019 18:00:00 10,7 7,8 - 0,0
17.02.2019 17:00:00 12,1 7,7 - 0,0
17.02.2019 16:00:00 13,2 7,2 - 0,0
17.02.2019 15:00:00 13,9 6,4 - 0,0
17.02.2019 14:00:00 14,5 5,7 - 0,0
17.02.2019 13:00:00 13,7 5,3 - 0,0
17.02.2019 12:00:00 12,3 6,4 - 0,0
17.02.2019 11:00:00 - - - 0,0
17.02.2019 10:00:00 8,3 5,6 - 0,0
17.02.2019 09:00:00 6,8 6,7 5,9 0,0
17.02.2019 08:00:00 1,6 1,6 - 0,0
17.02.2019 07:00:00 1,0 1,0 - 0,0
17.02.2019 06:00:00 1,2 1,2 - 0,0
17.02.2019 05:00:00 2,9 2,9 - 0,0
17.02.2019 04:00:00 4,5 4,5 - 0,0
17.02.2019 03:00:00 4,8 4,8 - 0,0
17.02.2019 02:00:00 6,0 6,0 - 0,0
17.02.2019 01:00:00 7,2 7,1 - 0,0
17.02.2019 00:00:00 7,9 7,7 - 0,0
16.02.2019 23:00:00 7,8 7,6 - 0,0
16.02.2019 22:00:00 7,3 6,7 - 0,0
16.02.2019 21:00:00 10,0 9,0 - 0,0
16.02.2019 20:00:00 10,1 9,1 - 0,0
16.02.2019 19:00:00 10,6 9,4 - 0,0
16.02.2019 18:00:00 10,9 9,5 - 0,0
16.02.2019 17:00:00 11,1 9,6 - 0,0
16.02.2019 16:00:00 11,5 9,7 - 0,0
16.02.2019 15:00:00 12,0 9,7 - 0,0
16.02.2019 14:00:00 12,0 9,6 - 0,0
16.02.2019 13:00:00 11,6 9,6 - 0,0
16.02.2019 12:00:00 10,3 8,8 - 0,0
16.02.2019 11:00:00 9,3 8,4 - 0,0
16.02.2019 10:00:00 7,0 6,7 - 0,0
16.02.2019 09:00:00 6,5 6,2 5,5 0,0
16.02.2019 08:00:00 5,9 5,7 - 0,0
16.02.2019 07:00:00 4,9 4,7 - 0,2
16.02.2019 06:00:00 -0,5 -0,6 - 0,0
16.02.2019 05:00:00 -0,7 -0,9 - 0,0
16.02.2019 04:00:00 -0,9 -1,1 - 0,0
16.02.2019 03:00:00 0,2 0,1 - 0,0
16.02.2019 02:00:00 -0,7 -0,9 - 0,0
16.02.2019 01:00:00 -0,7 -1,1 - 0,0

tt = temperature
td = dewpoint
tt -20cm = temperature -20cm
rr = precipitation

Next stations